Total_Precipitation_Accumulation
2.66 2.82 3.55 3.31 3.05 2.91 2.80 2.69 2.50 2.45 2.56 2.71 2.70 2.71 2.77 2.84 2.95 3.06 3.20 3.24 3.46 3.75 3.91 3.96 3.76 3.79 3.72 3.63 3.29 2.82 2.47 2.42 2.26 2.07 1.91 1.87 1.89 2.09 2.52 2.71 2.51 1.87 1.82
2.28 2.61 3.21 3.07 2.89 2.76 2.64 2.57 2.43 2.36 2.56 2.76 2.81 2.75 2.82 2.81 2.88 2.90 3.05 3.38 3.68 3.84 3.93 3.68 3.53 3.55 3.52 3.48 3.11 2.74 2.47 2.41 2.30 2.29 2.13 1.83 2.01 2.39 2.75 2.82 2.80 1.97 1.87
1.98 2.32 2.47 2.74 2.64 2.56 2.51 2.59 2.84 2.83 2.81 2.76 2.77 2.68 2.72 2.73 2.80 2.87 3.11 3.38 3.62 3.59 3.60 3.45 3.34 3.22 3.15 3.08 2.88 2.61 2.45 2.31 2.36 2.53 2.65 1.85 1.67 2.39 2.68 2.72 2.51 1.88 1.70
1.79 2.06 2.15 2.48 2.41 2.21 2.38 2.63 2.92 3.05 3.01 2.93 2.79 2.64 2.59 2.71 2.87 2.98 2.95 3.08 3.23 3.13 2.98 3.05 3.19 3.09 2.95 2.72 2.61 2.55 2.48 2.42 2.63 2.97 2.97 2.07 1.60 2.02 2.42 2.37 2.09 1.76 1.57
1.71 1.98 2.27 2.35 2.17 2.07 2.21 2.51 2.79 2.95 2.92 2.86 2.72 2.63 2.70 2.66 2.71 2.78 2.77 2.89 2.91 2.95 2.86 2.80 2.93 3.03 2.90 2.69 2.59 2.59 2.53 2.56 2.90 2.95 2.52 2.37 2.26 2.23 2.27 2.21 2.01 1.79 1.64
1.38 1.69 2.04 2.25 2.14 2.11 2.35 2.49 2.55 2.60 2.59 2.54 2.54 2.62 2.63 2.57 2.61 2.59 2.54 2.59 2.78 2.80 2.55 2.49 2.76 3.03 2.99 2.75 2.57 2.74 2.83 2.93 2.83 2.30 2.13 2.13 2.19 2.31 2.25 2.33 2.26 2.01 1.85
1.24 1.50 1.81 2.18 2.12 2.11 2.23 2.35 2.43 2.56 2.54 2.45 2.43 2.38 2.43 2.53 2.55 2.46 2.27 2.33 2.51 2.49 2.31 2.32 2.62 2.86 2.89 2.76 2.70 3.04 3.07 3.06 2.55 2.12 2.01 2.21 2.04 1.97 2.14 2.38 2.54 2.32 2.00
1.06 1.32 1.58 1.95 2.03 1.98 2.03 2.18 2.40 2.52 2.52 2.41 2.23 2.13 2.22 2.33 2.30 2.21 2.12 2.28 2.27 2.14 2.16 2.24 2.55 2.45 2.60 2.85 2.98 3.31 3.21 2.69 2.04 1.99 1.86 1.91 1.59 1.71 2.06 2.29 2.42 2.29 2.00
0.97 1.11 1.39 1.68 1.90 1.95 2.08 2.18 2.21 2.18 2.11 2.05 1.93 2.00 2.15 2.24 2.12 2.02 2.05 2.16 2.08 2.11 2.21 2.38 2.54 2.35 2.55 2.92 3.10 3.22 3.08 2.56 1.97 1.96 1.74 1.91 1.80 1.97 2.28 2.36 2.29 2.28 2.05
1.23 1.27 1.43 1.53 1.66 1.79 1.93 2.06 2.07 2.03 1.88 1.79 1.78 1.85 1.93 2.04 2.03 1.93 1.92 2.12 2.04 2.07 2.11 2.35 2.46 2.36 2.68 2.97 3.13 3.09 2.94 2.35 1.79 1.78 1.83 1.70 1.88 2.26 2.59 2.58 2.47 2.42 2.27
1.56 1.57 1.50 1.44 1.45 1.63 1.70 1.80 2.00 1.99 1.91 1.85 1.93 1.98 1.99 2.02 1.85 1.86 1.95 2.31 2.26 2.31 2.33 2.49 2.62 2.85 2.98 2.93 3.10 3.01 2.66 2.18 2.07 2.00 2.00 1.77 2.03 2.53 2.82 2.75 2.67 2.70 2.54
1.63 1.69 1.72 1.64 1.45 1.55 1.59 1.82 1.90 1.65 1.76 1.91 2.08 1.96 1.98 2.08 2.07 1.91 2.30 2.61 2.73 2.92 2.96 3.08 3.28 3.16 2.90 3.00 3.45 3.34 2.49 2.31 2.14 2.15 2.35 2.15 2.37 2.92 3.19 2.96 2.79 2.86 2.74
1.77 1.58 1.74 1.96 1.89 1.88 1.97 1.81 1.78 1.79 1.96 2.00 1.87 1.83 2.04 1.82 1.71 1.92 2.25 2.58 2.86 3.15 3.34 3.56 3.71 3.36 3.34 3.61 3.76 3.36 2.60 2.27 2.22 2.06 2.39 2.48 2.68 3.21 3.61 3.38 3.15 3.10 3.02
2.00 1.68 1.68 1.90 2.17 2.18 2.03 1.91 1.78 1.74 1.89 1.91 2.04 1.92 2.07 2.05 2.05 2.27 2.74 2.90 3.14 3.25 3.71 3.78 4.18 3.96 3.62 3.40 3.44 3.27 2.86 2.67 2.42 2.48 2.78 2.42 2.61 3.17 3.78 3.80 3.61 3.41 3.23
2.25 2.02 1.92 1.90 2.17 2.23 2.22 2.08 1.85 1.92 1.92 2.07 2.22 2.14 2.20 2.32 2.62 2.92 3.06 3.42 3.35 3.37 3.67 4.10 4.13 4.40 4.38 4.23 3.93 3.54 3.39 3.11 2.75 2.82 2.93 2.79 2.72 3.00 3.64 4.15 4.08 3.81 3.48
2.59 2.45 2.20 2.05 2.09 2.20 2.26 2.29 2.28 2.20 2.38 2.41 2.47 2.49 2.63 2.86 3.19 3.54 3.61 3.77 3.59 3.58 4.02 4.32 4.39 4.96 4.85 4.61 4.07 3.74 3.50 3.33 3.02 2.87 3.07 3.22 2.85 2.76 3.25 4.08 4.44 4.30 4.06
2.77 2.85 2.76 2.57 2.55 2.68 2.95 2.92 2.68 2.74 2.77 2.87 3.01 3.07 3.06 3.20 3.66 3.98 3.96 3.87 3.88 3.89 4.26 4.52 4.66 4.81 4.53 4.31 4.13 3.91 3.72 3.45 3.01 3.02 3.06 3.28 3.09 2.86 3.16 3.61 4.14 4.36 4.52
2.85 3.26 3.38 3.14 3.29 3.49 3.76 3.76 3.46 3.39 3.30 3.29 3.24 3.28 3.24 3.39 3.71 4.26 4.05 3.89 4.27 4.11 4.38 4.98 5.02 4.90 4.83 4.55 4.29 3.91 3.68 3.51 3.00 2.93 2.97 3.19 3.53 3.06 3.16 3.53 3.81 4.00 4.63
3.00 3.52 3.79 3.92 4.09 4.18 4.30 4.31 4.16 3.97 3.80 3.51 3.51 3.49 3.34 3.39 3.57 4.03 3.95 4.07 4.12 4.43 4.61 4.30 5.00 5.09 4.91 4.60 3.90 3.67 3.28 3.14 3.09 2.80 2.97 3.03 3.42 3.26 3.27 3.32 3.60 3.79 4.55
3.31 3.75 4.31 4.62 4.77 4.58 4.54 4.54 4.31 3.98 3.80 3.59 3.54 3.52 3.31 3.37 3.44 3.96 3.83 3.86 3.94 4.39 4.54 4.49 4.96 4.93 4.60 4.51 3.54 3.33 3.15 2.73 2.74 2.82 2.66 2.88 3.17 2.85 3.10 3.38 3.79 3.37 3.74
3.79 4.09 4.42 4.93 5.24 5.15 5.20 5.08 4.89 4.56 4.35 3.93 3.47 3.12 3.08 3.09 3.35 3.89 3.59 4.00 3.91 4.11 4.23 4.19 4.55 4.69 4.31 4.31 4.23 3.74 2.98 2.52 2.49 2.48 2.53 2.75 2.78 2.90 3.55 4.12 4.26 4.11 3.87
3.60 4.12 4.49 4.54 4.54 4.44 4.69 5.07 5.27 5.18 4.64 4.00 3.61 3.48 3.09 3.03 3.21 3.44 3.76 3.68 3.73 3.95 3.95 3.99 4.35 4.33 3.89 4.02 4.27 4.33 3.54 3.17 2.62 2.03 2.36 2.51 2.64 3.06 3.35 3.56 3.97 4.34 4.47
3.03 3.57 3.73 3.64 3.62 3.53 3.67 4.06 4.37 4.66 4.43 4.13 3.81 3.55 3.14 3.01 3.03 3.21 3.47 3.49 3.55 3.39 3.62 3.83 3.80 3.85 3.80 3.75 3.79 4.26 3.94 3.50 2.93 2.33 2.16 2.27 2.66 2.98 3.04 3.28 3.33 3.66 3.97
2.18 2.43 2.65 2.88 3.03 3.05 3.08 3.29 3.53 3.83 3.91 3.91 3.86 3.52 3.14 2.84 2.81 2.96 3.08 3.08 3.14 3.06 3.35 3.05 3.13 3.48 3.75 3.62 3.52 3.46 3.54 3.68 3.56 2.87 2.35 2.23 2.53 2.70 2.69 2.65 2.95 3.41 3.53
1.92 2.17 2.39 2.71 2.89 2.96 2.92 3.00 3.23 3.57 3.62 3.46 3.34 3.41 3.19 2.90 2.62 2.55 2.75 2.85 2.84 2.76 2.85 2.90 3.24 3.20 3.35 3.37 3.38 3.38 3.50 3.54 3.37 3.19 2.79 2.64 2.58 2.29 2.27 2.45 2.73 3.09 3.28
1.78 2.01 2.26 2.51 2.52 2.62 2.68 2.69 2.76 2.98 3.15 3.02 2.88 2.91 2.76 2.63 2.51 2.41 2.48 2.68 2.59 2.57 2.69 2.81 2.93 2.93 3.03 3.14 3.13 3.14 3.42 3.32 3.24 3.36 3.00 2.82 2.71 2.35 2.29 2.38 2.55 2.85 3.01